Theta_e
308 308 307 306 306 305 304 300 299 298 299 301 305 306 305 307 308 309 308 311 314 310 309 309 308 306 306 302 302 301 302 302 305 303 305 304 306 305 303 306 307 308 308 308 308
308 308 307 305 304 302 300 299 298 298 299 301 305 306 306 309 308 307 308 309 309 309 310 309 307 304 302 303 303 301 301 306 305 305 305 305 306 306 308 306 309 307 307 307 307
308 308 308 304 301 301 301 299 298 298 299 302 306 306 308 310 308 307 309 309 308 309 310 309 305 304 304 303 304 305 305 306 308 306 305 307 307 307 308 310 308 307 306 306 307
308 308 308 305 301 300 300 299 298 298 300 304 306 306 309 308 313 306 309 308 308 309 309 306 303 305 304 306 305 307 306 307 308 307 307 308 306 308 309 309 306 304 305 307 308
308 308 308 306 302 300 299 298 298 298 301 305 306 307 310 305 306 307 309 308 308 308 307 305 304 304 305 305 305 307 307 307 306 307 306 307 309 308 309 306 304 304 307 308 307
308 308 307 306 302 300 299 297 298 298 302 305 307 308 309 308 306 307 309 309 309 308 308 305 305 304 304 305 305 305 306 306 308 308 307 309 309 309 308 304 304 305 307 308 307
308 307 307 307 303 300 300 298 298 299 303 305 306 307 304 305 305 307 309 310 309 308 307 307 307 306 305 306 304 305 307 308 307 307 309 308 310 310 306 304 303 303 306 307 307
308 308 307 307 304 300 299 297 298 301 303 304 307 305 304 305 305 307 308 309 310 309 309 308 307 304 305 304 305 307 304 309 308 307 308 307 308 309 304 303 302 302 305 306 307
309 308 307 307 305 301 299 297 299 302 302 305 305 305 305 305 305 306 307 308 309 310 311 308 306 306 308 306 303 301 306 305 308 308 308 308 308 307 305 303 301 301 304 306 306
309 308 307 306 305 301 298 298 300 302 302 303 303 304 304 305 305 306 307 309 309 308 309 305 300 301 302 303 298 302 302 306 306 306 308 308 308 306 306 303 301 300 303 303 305
310 308 307 306 304 301 299 300 299 299 301 302 303 304 304 305 306 306 307 308 307 306 310 304 303 302 307 305 301 299 301 303 306 308 308 307 307 307 307 304 301 299 300 300 301
310 308 307 307 303 302 298 298 300 301 301 301 302 302 303 304 306 304 307 308 306 308 306 302 305 305 304 305 306 305 303 301 302 304 306 301 307 307 309 305 302 300 298 298 299
311 308 307 306 302 301 298 299 302 302 301 301 301 303 303 305 305 305 306 307 307 309 306 302 306 306 309 308 309 309 307 306 303 305 307 304 304 305 309 307 303 300 298 297 297
310 308 307 305 302 297 297 298 299 303 303 304 302 302 303 304 304 304 304 306 306 307 306 307 307 309 309 308 305 310 307 307 309 306 305 302 302 301 307 309 306 300 297 296 296
310 308 307 303 298 300 299 300 300 305 315 303 301 301 302 303 303 303 304 305 307 307 302 306 308 309 309 307 305 309 306 308 309 309 305 302 303 303 307 310 307 301 299 296 295
311 309 307 303 301 301 301 299 302 308 316 301 300 304 304 304 304 304 304 302 302 303 303 305 304 305 305 304 304 305 307 306 303 304 302 304 301 298 305 307 308 301 299 297 295
311 308 307 304 300 300 299 301 309 313 302 300 301 303 303 304 305 304 305 305 303 301 300 304 305 304 303 306 305 306 306 305 305 303 303 301 303 299 300 307 306 301 298 296 294
310 308 306 303 299 301 300 302 305 304 302 299 302 302 303 303 304 305 303 303 303 299 297 301 301 305 304 305 306 306 303 304 304 303 301 301 303 301 301 306 304 299 298 296 294
309 307 304 301 299 299 299 303 305 305 301 302 302 302 302 302 303 305 301 301 302 300 302 304 305 303 303 304 304 306 302 302 303 293 302 302 301 298 308 306 301 299 298 296 294
307 303 301 304 300 299 296 301 306 301 300 301 305 300 299 300 303 303 302 301 302 301 302 303 305 302 304 304 304 305 301 305 302 300 303 302 302 301 302 305 304 300 298 296 293
306 304 299 302 300 297 296 294 298 298 300 302 300 298 301 300 299 303 302 302 302 302 302 300 301 301 303 303 303 305 304 301 301 301 304 305 305 297 298 299 302 303 299 297 294
304 303 298 301 299 286 292 294 298 299 298 299 299 299 300 298 300 300 302 301 300 301 304 302 301 300 302 303 302 303 303 301 304 306 300 303 304 299 298 302 301 299 302 297 294
298 295 295 297 301 287 287 291 295 297 299 299 299 300 298 299 300 301 300 298 299 301 302 302 299 297 301 302 300 303 303 301 299 300 303 304 305 298 299 300 300 299 299 298 294
298 298 295 296 292 292 291 293 296 295 298 298 299 298 299 300 295 300 301 299 301 302 304 301 301 304 307 306 301 301 302 301 301 301 302 302 303 302 301 300 299 301 300 298 294
297 299 297 300 299 293 295 296 297 296 296 297 299 300 300 301 300 297 298 299 300 304 301 299 299 297 299 298 301 302 302 302 301 301 305 306 301 302 301 299 298 297 299 299 296
299 298 295 298 299 297 298 296 300 297 297 298 299 299 299 301 302 302 299 299 303 301 301 297 295 290 293 294 295 302 301 302 301 302 298 300 300 299 298 298 296 296 296 299 297
298 296 302 302 300 299 297 298 299 299 297 298 299 300 299 299 298 296 295 296 299 300 296 295 291 295 299 287 294 302 299 301 301 300 301 303 302 300 301 299 299 298 296 296 296
Wind_Speed
7 7 8 9 10 11 12 11 11 10 10 10 10 9 7 8 9 9 9 10 12 15 10 6 6 7 8 5 6 2 5 3 2 3 2 3 2 2 4 3 4 1 4 13 30
8 7 7 8 10 10 11 10 9 10 10 10 9 8 8 7 4 12 11 13 12 10 5 8 4 6 5 4 5 5 4 2 1 2 3 0 2 3 4 5 3 5 10 22 25
9 8 8 8 9 10 10 9 9 9 8 8 7 7 8 4 1 3 14 15 11 7 2 3 5 4 6 5 6 3 4 4 1 3 3 2 1 2 4 3 3 10 18 21 21
10 9 8 8 9 9 10 9 8 8 8 7 6 7 5 3 1 6 14 16 11 4 3 5 5 5 5 5 3 7 3 3 4 2 2 2 1 1 1 4 8 10 15 15 15
11 11 10 10 9 9 9 9 8 7 7 6 6 6 2 4 2 8 13 14 9 4 7 3 5 4 6 6 4 7 3 4 3 4 3 2 1 1 3 6 10 14 13 12 12
12 11 12 10 9 9 9 8 8 6 5 5 6 3 2 1 3 9 10 12 14 12 10 8 3 5 7 4 5 3 5 4 4 2 1 2 1 1 2 7 10 11 13 12 11
13 11 10 9 9 9 8 8 8 5 3 3 5 4 4 1 4 8 7 10 12 10 4 5 5 5 5 5 4 4 5 3 6 4 1 1 1 2 4 7 8 12 11 14 15
14 12 10 10 9 9 8 7 6 3 3 2 3 2 2 1 4 7 6 5 7 8 9 8 12 9 5 5 6 5 5 3 4 7 3 1 4 2 6 6 9 13 12 14 15
15 14 11 10 9 8 9 6 3 2 2 1 1 2 1 1 3 6 7 3 4 6 7 7 6 5 4 5 4 7 2 3 2 3 3 4 3 4 5 6 8 9 12 12 15
17 14 13 11 8 7 8 2 0 1 1 2 1 3 1 1 2 3 4 4 4 1 3 7 6 5 4 4 3 4 4 2 2 4 4 5 5 6 5 7 7 8 11 12 13
18 14 12 10 6 6 4 2 3 3 7 1 1 1 1 1 2 5 5 2 2 7 3 5 7 3 2 2 5 7 4 2 2 2 1 1 4 6 6 5 8 8 9 11 13
19 14 11 9 5 6 3 2 3 0 3 2 1 2 1 1 2 4 5 2 4 3 2 6 4 4 6 4 5 4 2 2 4 3 2 4 5 4 3 5 4 6 8 10 13
21 16 10 9 6 6 5 5 1 1 3 0 0 1 0 1 2 1 3 2 4 4 4 5 4 7 3 2 4 3 3 2 4 1 2 5 6 4 3 4 4 4 5 6 7
24 18 13 11 4 4 4 6 4 1 4 2 2 0 1 2 2 1 3 3 5 5 5 6 2 4 3 2 3 2 1 2 1 3 1 3 3 5 3 7 5 5 6 7 8
27 22 19 15 8 5 1 6 5 0 2 1 3 0 1 3 3 4 3 4 5 4 4 2 5 3 3 3 2 3 2 1 1 4 2 1 4 6 3 5 6 7 6 6 6
30 28 24 19 7 2 4 8 0 5 7 4 3 4 4 2 1 1 3 6 4 5 6 2 0 1 3 2 2 4 3 3 3 2 3 1 3 5 4 6 3 4 6 5 7
35 31 30 15 11 8 11 4 2 4 3 4 5 5 2 4 2 1 5 4 5 5 1 3 1 1 2 3 1 2 3 2 4 4 4 4 1 8 5 6 6 6 6 6 5
41 35 26 16 9 16 7 4 4 3 6 2 4 5 6 5 1 2 5 3 4 4 4 6 3 4 0 0 4 2 2 4 5 2 3 2 5 4 2 0 1 4 3 5 7
38 29 25 19 15 20 4 4 8 8 8 10 4 5 3 3 5 4 6 6 8 10 5 5 2 2 3 1 1 2 1 3 6 3 3 3 6 4 2 3 3 5 5 7 7
33 18 9 23 18 12 4 11 5 3 7 3 6 4 8 6 5 6 8 4 6 6 2 6 5 1 1 1 3 1 4 3 3 2 3 4 4 5 5 9 8 8 10 8 7
22 5 14 26 20 4 5 7 5 4 2 6 5 5 5 8 6 6 7 1 3 6 3 5 4 3 1 4 6 2 1 4 3 3 4 1 5 6 6 6 9 11 10 9 9
8 4 21 32 5 1 4 7 3 4 2 1 4 4 7 7 6 3 9 2 6 8 9 5 5 4 2 1 0 1 5 5 3 4 1 3 6 2 4 4 4 7 8 7 8
4 3 2 10 10 3 2 2 3 5 5 6 3 2 3 7 4 5 4 2 5 7 8 7 1 3 7 4 3 4 5 5 4 2 5 5 5 3 4 4 4 6 7 8 8
5 5 2 2 1 8 6 5 4 1 3 4 4 5 4 3 4 6 4 1 1 4 3 4 3 5 7 5 5 5 6 6 6 3 4 6 6 5 4 6 5 6 6 8 9
3 4 6 11 13 4 9 10 7 6 1 2 2 4 7 4 3 3 1 3 3 4 2 4 5 3 4 4 2 4 6 10 9 5 6 3 8 7 6 8 7 8 7 5 6
6 5 2 6 17 11 15 16 22 8 8 5 4 9 6 7 8 9 8 5 6 2 5 1 2 2 3 5 5 1 4 9 5 3 8 4 9 11 8 4 5 7 7 8 9
4 5 4 15 16 19 14 14 14 12 4 3 9 6 4 2 3 3 5 6 6 9 5 6 6 3 4 3 2 6 12 11 6 6 8 8 10 5 4 6 5 7 8 9 9
Wind_Direction
297 312 323 330 334 339 343 349 352 354 356 357 1 1 360 2 31 60 41 344 325 334 346 350 44 52 61 65 41 87 64 84 123 137 106 347 55 353 306 324 334 244 231 274 307
278 296 310 321 327 333 339 344 351 352 353 356 2 5 360 354 17 50 5 352 343 338 2 36 26 31 50 37 27 62 77 129 181 114 140 311 52 320 10 333 300 295 285 305 309
268 280 296 312 320 326 332 339 343 346 348 353 358 2 355 345 31 343 356 357 357 340 66 59 77 66 60 38 6 35 115 170 84 130 143 135 36 28 341 348 263 303 310 315 317
260 270 282 305 312 319 326 333 339 341 345 352 356 351 356 2 76 354 355 358 8 53 85 66 41 59 70 60 4 95 92 108 154 125 121 113 88 10 56 258 299 290 294 307 334
256 264 270 298 303 311 323 327 333 336 342 352 3 354 19 49 356 351 359 10 24 59 53 68 65 104 96 102 74 76 132 73 113 111 89 77 32 301 265 308 315 310 318 333 332
248 259 269 286 296 305 318 324 329 332 342 355 8 17 41 116 348 358 4 34 41 58 50 44 98 109 86 65 68 113 99 110 60 106 42 9 276 339 316 332 330 333 328 338 339
255 245 263 282 291 301 312 315 321 326 326 354 3 35 62 141 10 8 14 35 35 57 66 54 101 81 129 97 139 115 77 60 27 354 26 332 7 2 299 344 337 337 332 343 337
249 242 250 273 290 300 309 312 314 314 315 324 349 42 118 350 3 18 30 51 50 69 80 86 83 93 67 116 39 58 57 62 1 9 321 138 289 320 338 353 352 335 343 343 342
237 243 246 261 289 300 303 308 299 307 307 329 310 85 132 16 43 14 28 24 23 66 65 75 70 81 38 85 42 14 115 52 16 53 309 26 306 317 339 4 353 336 346 338 335
233 241 247 257 286 295 303 297 262 111 113 93 50 27 14 68 2 3 27 35 49 27 28 41 53 77 38 66 190 190 114 138 160 317 16 10 317 314 328 7 340 336 341 337 338
229 233 239 244 276 288 318 146 43 342 48 112 111 93 37 344 37 35 7 14 60 52 54 14 69 94 157 36 92 106 101 149 224 229 4 42 285 294 314 339 339 345 336 340 339
223 222 224 232 248 266 272 192 215 138 112 30 83 58 72 20 92 4 10 91 65 87 15 29 88 150 129 109 101 88 104 349 313 290 89 317 299 277 295 278 297 335 334 334 339
216 211 209 219 221 261 226 233 256 188 89 160 49 114 273 18 98 342 10 101 96 71 21 111 151 148 129 110 95 47 137 176 197 348 27 333 332 336 278 277 308 346 316 323 330
203 200 190 199 177 187 225 245 222 196 57 217 199 228 15 115 55 332 17 100 41 132 112 95 181 144 117 103 118 139 175 137 190 117 157 9 276 297 292 295 292 313 332 327 338
193 193 187 186 137 171 324 176 186 300 343 118 161 339 104 146 131 1 26 51 115 111 111 181 157 145 105 148 133 154 141 91 23 79 102 14 83 267 0 293 276 292 297 308 327
193 188 182 179 180 173 131 148 127 56 249 165 128 164 107 48 6 136 82 53 123 82 39 109 263 77 123 120 107 146 101 66 54 99 32 173 113 276 207 209 242 262 280 304 332
189 188 185 165 150 177 152 83 77 185 2 217 172 163 137 147 130 133 136 130 146 96 338 10 352 337 135 106 26 114 101 358 358 18 205 137 30 243 218 209 202 223 257 292 318
185 182 181 154 118 152 122 68 190 220 197 136 121 110 174 162 160 133 116 153 207 104 116 148 282 166 221 40 166 133 188 148 198 189 254 152 236 253 230 9 181 190 208 267 291
172 162 170 147 157 149 98 187 209 200 158 141 81 104 222 219 146 152 189 191 200 173 156 139 10 350 56 99 83 156 95 164 109 40 41 252 291 297 30 264 227 227 227 247 264
154 142 149 165 147 122 91 219 230 164 121 144 144 147 173 198 152 174 180 197 189 173 181 194 103 7 356 141 44 133 157 75 5 84 316 294 286 244 238 238 230 228 229 233 242
149 127 156 151 129 77 195 223 236 231 130 153 151 130 172 175 169 190 201 221 163 151 146 155 105 256 52 207 175 133 124 47 112 133 149 303 270 214 210 211 213 223 216 215 215
128 131 164 146 140 178 184 187 177 157 177 220 112 108 155 159 153 204 202 239 167 150 163 197 120 137 183 286 306 224 176 155 121 211 22 126 273 227 227 273 244 252 222 216 209
95 107 137 172 187 205 297 247 203 138 195 168 146 118 152 162 138 181 200 329 165 157 162 179 266 74 351 355 354 215 202 138 118 72 197 141 256 199 197 246 263 247 213 203 202
126 123 118 244 84 151 143 208 187 256 177 151 127 101 114 110 14 160 144 188 142 157 123 108 123 165 180 173 134 185 186 175 137 128 175 226 287 269 235 219 217 240 242 204 191
133 163 181 183 201 145 181 169 154 177 268 214 59 208 162 122 94 160 168 126 37 155 76 125 167 86 38 35 111 169 175 182 192 169 179 246 202 250 231 209 209 204 174 198 221
137 147 174 169 165 174 189 199 194 168 144 222 202 182 183 153 185 183 146 190 183 154 155 55 174 109 348 350 27 272 187 200 234 262 266 231 276 218 254 236 251 220 178 194 197
115 133 151 157 172 183 200 199 197 160 224 163 167 121 195 195 63 57 86 93 127 143 146 138 138 117 243 346 19 324 213 188 197 214 164 198 229 182 182 200 236 219 188 202 206